Weather History for KAMN - January, 2013

Change the Weather History Date:

Tuesday, January 15, 2013

  Actual Average Record
Temperature  
Mean Temperature 20 °F -  
Max Temperature 28 °F 27 °F 54 °F (1953)
Min Temperature 12 °F 10 °F -17 °F (1963)
Degree Days  
Heating Degree Days 45    
Moisture  
Dew Point 16 °F    
Average Humidity 86    
Maximum Humidity 96    
Minimum Humidity 70    
Precipitation  
Precipitation 0.00 in - - ()
Sea Level Pressure  
Sea Level Pressure 30.31 in    
Wind  
Wind Speed 2 mph (South)    
Max Wind Speed 8 mph    
Max Gust Speed -    
Visibility 10 miles    
Events      
Averages and records for this station are not official NWS values.
T = Trace of Precipitation, MM = Missing Value Source: NWS Daily Summary

Daily Weather History Graph

Daily Weather History Graph

Search for Another Location

Airport or City:

Trip Planner

Search our weather history database for the weather conditions in past years. The results will help you decide how hot, cold, wet, or windy it might be!

Date:

Astronomy

Jan. 15, 2013 Rise Set
Actual Time 8:08 AM EST 5:28 PM EST
Civil Twilight 7:36 AM EST 6:00 PM EST
Nautical Twilight 7:01 AM EST 6:35 PM EST
Astronomical Twilight 6:27 AM EST 7:09 PM EST
Moon 10:04 AM EST (1/15) 10:27 PM EST (1/15)
Length of Visible Light 10h 24m
Length of Day
9h 20m
Waxing Crescent, 19% of the Moon is Illuminated
Jan 15
Waxing Crescent
Jan 18
First Quarter
Jan 26
Full
Feb 3
Last Quarter
Feb 10
New

Hourly Weather History & Observations

Time (EST) Temp. Windchill Dew Point Humidity Pressure Visibility Wind Dir Wind Speed Gust Speed Precip Events Conditions
12:14 AM 15.8 °F - 14.7 °F 95% 30.37 in 10.0 mi Calm Calm - N/A   Clear
12:34 AM 15.3 °F 9.6 °F 13.8 °F 94% 30.36 in 10.0 mi SW 3.5 mph - N/A   Clear
12:54 AM 14.5 °F - 13.3 °F 95% 30.36 in 10.0 mi Calm Calm - N/A   Clear
1:14 AM 15.4 °F 9.8 °F 13.8 °F 93% 30.36 in 10.0 mi SW 3.5 mph - N/A   Clear
1:34 AM 15.4 °F 9.8 °F 13.8 °F 93% 30.36 in 10.0 mi SSW 3.5 mph - N/A   Clear
1:54 AM 15.6 °F 10.0 °F 14.0 °F 93% 30.36 in 10.0 mi South 3.5 mph - N/A   Clear
2:14 AM 15.6 °F 10.0 °F 14.2 °F 94% 30.37 in 10.0 mi SW 3.5 mph - N/A   Clear
2:35 AM 14.4 °F 8.6 °F 12.7 °F 93% 30.38 in 10.0 mi West 3.5 mph - N/A   Clear
2:55 AM 16.3 °F - 14.5 °F 93% 30.38 in 10.0 mi Calm Calm - N/A   Clear
3:15 AM 15.6 °F 8.3 °F 13.8 °F 93% 30.38 in 10.0 mi SSW 4.6 mph - N/A   Clear
3:30 AM 15.3 °F 9.6 °F 13.3 °F 92% 30.38 in 10.0 mi SSW 3.5 mph - N/A   Clear
4:10 AM 14.5 °F - 13.5 °F 95% 30.37 in 10.0 mi Calm Calm - N/A   Clear
4:30 AM 13.5 °F - 12.0 °F 94% 30.36 in 10.0 mi Calm Calm - N/A   Clear
4:50 AM 14.5 °F - 13.3 °F 95% 30.36 in 10.0 mi Calm Calm - N/A   Clear
5:10 AM 15.6 °F - 14.0 °F 93% 30.37 in 10.0 mi Calm Calm - N/A   Clear
5:51 AM 14.0 °F - 12.6 °F 94% 30.37 in 10.0 mi Calm Calm - N/A   Clear
6:11 AM 14.0 °F - 13.1 °F 96% 30.37 in 10.0 mi Calm Calm - N/A   Clear
6:31 AM 13.8 °F - 12.7 °F 95% 30.38 in 10.0 mi Calm Calm - N/A   Clear
6:51 AM 13.1 °F - 12.0 °F 95% 30.38 in 7.0 mi Calm Calm - N/A   Clear
7:11 AM 13.6 °F - 12.7 °F 96% 30.38 in 7.0 mi Calm Calm - N/A   Clear
7:31 AM 13.1 °F - 12.0 °F 95% 30.38 in 7.0 mi Calm Calm - N/A   Clear
7:51 AM 12.7 °F - 11.7 °F 95% 30.39 in 7.0 mi Calm Calm - N/A   Clear
8:11 AM 12.2 °F - 11.1 °F 95% 30.38 in 5.0 mi Calm Calm - N/A   Clear
8:31 AM 12.7 °F - 11.5 °F 95% 30.38 in 5.0 mi Calm Calm - N/A   Clear
8:52 AM 13.6 °F - 12.4 °F 95% 30.39 in 7.0 mi Calm Calm - N/A   Clear
9:12 AM 15.3 °F - 14.2 °F 95% 30.39 in 7.0 mi Calm Calm - N/A   Clear
9:32 AM 16.9 °F - 15.8 °F 96% 30.39 in 7.0 mi Calm Calm - N/A   Clear
9:52 AM 19.0 °F - 18.1 °F 96% 30.39 in 7.0 mi Calm Calm - N/A   Clear
10:12 AM 20.3 °F - 19.4 °F 96% 30.39 in 7.0 mi Calm Calm - N/A   Clear
10:32 AM 21.9 °F - 20.3 °F 93% 30.39 in 10.0 mi Calm Calm - N/A   Clear
10:52 AM 23.7 °F - 19.8 °F 85% 30.39 in 10.0 mi Calm Calm - N/A   Clear
11:12 AM 24.1 °F - 19.0 °F 81% 30.39 in 10.0 mi Calm Calm - N/A   Clear
11:33 AM 24.3 °F 19.9 °F 18.7 °F 79% 30.39 in 10.0 mi SSE 3.5 mph - N/A   Clear
11:53 AM 24.8 °F 20.5 °F 18.5 °F 77% 30.39 in 10.0 mi SSE 3.5 mph - N/A   Clear
12:13 PM 25.7 °F 19.0 °F 18.5 °F 74% 30.38 in 10.0 mi SSE 5.8 mph - N/A   Clear
12:33 PM 25.7 °F 19.0 °F 18.1 °F 73% 30.36 in 10.0 mi SSE 5.8 mph - N/A   Clear
12:53 PM 26.1 °F 17.6 °F 17.6 °F 70% 30.34 in 10.0 mi South 8.1 mph - N/A   Clear
1:13 PM 26.2 °F 22.1 °F 18.0 °F 71% 30.31 in 10.0 mi SSW 3.5 mph - N/A   Clear
1:33 PM 26.2 °F - 18.0 °F 71% 30.32 in 10.0 mi Calm Calm - N/A   Clear
1:53 PM 27.0 °F 21.6 °F 18.7 °F 71% 30.32 in 10.0 mi South 4.6 mph - N/A   Clear
2:34 PM 27.5 °F 20.2 °F 20.1 °F 74% 30.32 in 10.0 mi South 6.9 mph - N/A   Clear
2:54 PM 27.5 °F 20.2 °F 19.6 °F 72% 30.30 in 10.0 mi South 6.9 mph - N/A   Clear
3:14 PM 27.5 °F 20.2 °F 19.6 °F 72% 30.30 in 10.0 mi South 6.9 mph - N/A   Clear
3:34 PM 28.0 °F 20.8 °F 19.6 °F 71% 30.29 in 10.0 mi SSE 6.9 mph - N/A   Clear
3:54 PM 27.5 °F 20.2 °F 19.6 °F 72% 30.29 in 10.0 mi South 6.9 mph - N/A   Clear
4:14 PM 27.3 °F 19.9 °F 19.8 °F 73% 30.28 in 10.0 mi South 6.9 mph - N/A   Clear
4:34 PM 27.0 °F 19.5 °F 19.6 °F 74% 30.28 in 10.0 mi South 6.9 mph - N/A   Clear
4:54 PM 26.6 °F 20.0 °F 19.6 °F 75% 30.27 in 10.0 mi South 5.8 mph - N/A   Clear
5:14 PM 25.7 °F 20.1 °F 18.9 °F 75% 30.27 in 10.0 mi SSW 4.6 mph - N/A   Clear
5:35 PM 25.0 °F 18.1 °F 18.3 °F 76% 30.26 in 10.0 mi South 5.8 mph - N/A   Clear
5:55 PM 23.9 °F 18.0 °F 17.8 °F 77% 30.26 in 10.0 mi South 4.6 mph - N/A   Clear
6:15 PM 23.7 °F 17.8 °F 17.6 °F 77% 30.26 in 10.0 mi South 4.6 mph - N/A   Clear
6:30 PM 22.8 °F 16.7 °F 17.2 °F 79% 30.26 in 10.0 mi South 4.6 mph - N/A   Clear
6:50 PM 22.1 °F 15.9 °F 17.4 °F 82% 30.26 in 10.0 mi South 4.6 mph - N/A   Scattered Clouds
7:10 PM 22.5 °F 14.1 °F 17.4 °F 81% 30.26 in 10.0 mi South 6.9 mph - N/A   Scattered Clouds
7:30 PM 23.0 °F 15.8 °F 17.6 °F 80% 30.25 in 10.0 mi South 5.8 mph - N/A   Scattered Clouds
7:51 PM 22.5 °F 16.3 °F 17.2 °F 80% 30.24 in 10.0 mi South 4.6 mph - N/A   Scattered Clouds
8:11 PM 22.3 °F 14.9 °F 17.2 °F 81% 30.24 in 10.0 mi South 5.8 mph - N/A   Clear
8:31 PM 21.7 °F 15.5 °F 16.9 °F 82% 30.23 in 10.0 mi South 4.6 mph - N/A   Clear
8:51 PM 21.4 °F 16.6 °F 16.7 °F 82% 30.21 in 10.0 mi South 3.5 mph - N/A   Clear
9:11 PM 19.2 °F 14.1 °F 15.8 °F 87% 30.20 in 10.0 mi South 3.5 mph - N/A   Clear
9:31 PM 18.3 °F - 15.6 °F 89% 30.18 in 10.0 mi Calm Calm - N/A   Clear
9:51 PM 16.7 °F - 14.9 °F 93% 30.17 in 10.0 mi Calm Calm - N/A   Clear
10:11 PM 18.0 °F - 15.8 °F 91% 30.16 in 10.0 mi Calm Calm - N/A   Clear
10:32 PM 17.4 °F - 16.0 °F 94% 30.16 in 10.0 mi Calm Calm - N/A   Scattered Clouds
10:52 PM 16.7 °F - 15.4 °F 95% 30.15 in 10.0 mi Calm Calm - N/A   Mostly Cloudy
11:12 PM 16.0 °F - 14.7 °F 95% 30.14 in 10.0 mi Calm Calm - N/A   Overcast
11:32 PM 17.6 °F 12.3 °F 15.8 °F 93% 30.14 in 10.0 mi South 3.5 mph - N/A   Overcast
11:51 PM 18.3 °F 11.5 °F 16.3 °F 92% 30.13 in 10.0 mi South 4.6 mph - N/A   Overcast